TimeCDT,TemperatureF,Dew PointF,Humidity,Sea Level PressureIn,VisibilityMPH,Wind Direction,Wind SpeedMPH,Gust SpeedMPH,PrecipitationIn,Events,Conditions,WindDirDegrees,DateUTC
12:09 AM,64.4,60.8,88,29.82,10.0,North,8.1,-,N/A,,Mostly Cloudy,350,2013-09-09 05:09:00
12:52 AM,64.0,61.0,90,29.80,9.0,North,8.1,-,N/A,,Overcast,360,2013-09-09 05:52:00
1:33 AM,64.4,60.8,88,29.79,9.0,NW,8.1,-,N/A,,Overcast,310,2013-09-09 06:33:00
1:42 AM,64.4,60.8,88,29.80,9.0,NW,8.1,-,N/A,,Overcast,310,2013-09-09 06:42:00
1:52 AM,64.0,61.0,90,29.78,9.0,NNW,10.4,-,N/A,,Overcast,330,2013-09-09 06:52:00
2:38 AM,62.6,60.8,94,29.78,10.0,North,11.5,-,N/A,,Overcast,350,2013-09-09 07:38:00
2:52 AM,63.0,60.1,90,29.76,10.0,North,11.5,-,N/A,,Overcast,360,2013-09-09 07:52:00
2:57 AM,62.6,59.0,88,29.77,10.0,North,12.7,-,N/A,,Overcast,360,2013-09-09 07:57:00
3:52 AM,63.0,60.1,90,29.76,10.0,NE,6.9,-,N/A,,Overcast,50,2013-09-09 08:52:00
4:52 AM,63.0,60.1,90,29.76,10.0,NE,8.1,-,0.00,Rain,Light Rain,40,2013-09-09 09:52:00
5:05 AM,62.6,60.8,94,29.78,8.0,NNE,3.5,-,0.02,Rain,Light Rain,30,2013-09-09 10:05:00
5:22 AM,62.6,60.8,94,29.77,7.0,East,3.5,-,0.03,Rain,Light Rain,80,2013-09-09 10:22:00
5:52 AM,62.1,60.1,93,29.77,7.0,West,5.8,-,0.05,Rain,Light Rain,260,2013-09-09 10:52:00
5:57 AM,62.6,60.8,94,29.79,8.0,West,5.8,-,0.00,Rain,Light Rain,270,2013-09-09 10:57:00
6:52 AM,62.1,60.1,93,29.77,10.0,West,6.9,-,0.02,Rain,Light Rain,260,2013-09-09 11:52:00
7:33 AM,62.6,60.8,94,29.79,10.0,West,8.1,-,0.00,,Overcast,280,2013-09-09 12:33:00
7:52 AM,62.1,59.0,90,29.77,10.0,West,11.5,-,0.00,,Overcast,270,2013-09-09 12:52:00
8:52 AM,64.0,60.1,87,29.75,10.0,North,5.8,-,N/A,,Mostly Cloudy,350,2013-09-09 13:52:00
9:52 AM,66.0,60.1,81,29.77,10.0,West,9.2,-,N/A,,Clear,260,2013-09-09 14:52:00
10:31 AM,66.2,60.8,83,29.79,10.0,WSW,9.2,-,N/A,,Mostly Cloudy,250,2013-09-09 15:31:00
10:52 AM,66.9,60.1,79,29.78,10.0,West,6.9,-,N/A,,Overcast,260,2013-09-09 15:52:00
11:52 AM,66.9,60.1,79,29.78,10.0,WSW,9.2,-,N/A,,Overcast,250,2013-09-09 16:52:00
12:47 PM,68.0,60.8,78,29.79,10.0,West,9.2,-,N/A,,Overcast,270,2013-09-09 17:47:00
12:52 PM,68.0,60.1,76,29.78,10.0,WSW,10.4,-,N/A,,Overcast,250,2013-09-09 17:52:00
1:52 PM,73.9,57.9,57,29.76,10.0,SW,10.4,16.1,N/A,,Scattered Clouds,230,2013-09-09 18:52:00
2:52 PM,75.9,57.9,54,29.75,10.0,WSW,11.5,-,N/A,,Mostly Cloudy,250,2013-09-09 19:52:00
3:52 PM,78.1,55.9,46,29.73,10.0,WNW,12.7,20.7,N/A,,Partly Cloudy,300,2013-09-09 20:52:00
4:07 PM,75.2,55.4,50,29.76,10.0,WNW,10.4,-,N/A,,Mostly Cloudy,290,2013-09-09 21:07:00
4:52 PM,64.0,52.0,65,29.78,10.0,NW,23.0,39.1,N/A,,Mostly Cloudy,320,2013-09-09 21:52:00
5:18 PM,66.2,55.4,68,29.80,10.0,NNW,16.1,21.9,N/A,Thunderstorm,Overcast,330,2013-09-09 22:18:00
5:33 PM,69.8,53.6,56,29.80,10.0,NNW,16.1,23.0,N/A,,Overcast,330,2013-09-09 22:33:00
5:52 PM,64.9,57.9,78,29.80,10.0,North,15.0,-,N/A,,Scattered Clouds,350,2013-09-09 22:52:00
6:52 PM,66.0,57.0,73,29.80,10.0,North,6.9,-,N/A,,Clear,10,2013-09-09 23:52:00
7:52 PM,63.0,55.9,78,29.82,10.0,NW,6.9,-,N/A,,Partly Cloudy,320,2013-09-10 00:52:00
8:52 PM,61.0,55.9,83,29.85,10.0,West,5.8,-,N/A,,Clear,270,2013-09-10 01:52:00
9:52 PM,57.0,54.0,89,29.87,10.0,Calm,Calm,-,N/A,,Clear,0,2013-09-10 02:52:00
10:52 PM,57.0,54.0,89,29.88,10.0,NW,10.4,-,N/A,,Clear,320,2013-09-10 03:52:00
11:52 PM,57.0,54.0,89,29.89,10.0,NNW,3.5,-,N/A,,Clear,330,2013-09-10 04:52:00